This is the latest recevied weather packets stored in our database for station/object HS2XQB-3. If no packets are shown the sender has not sent any weather packets the latest 10 day(s).
| Time | Temp. | Humidity | Pressure | Rain* | Wind** | Luminosity | Snow |
|---|---|---|---|---|---|---|---|
| 1777463627 | 23.89° C | 57% | 1003 hPa | - | - | 0 W/m² | - |
| 1777461805 | 24.44° C | 60% | 1003 hPa | - | - | 0 W/m² | - |
| 1777459983 | 24.44° C | 53% | 1002 hPa | - | - | 0 W/m² | - |
| 1777458161 | 23.89° C | 48% | 1002 hPa | - | - | 0 W/m² | - |
| 1777456339 | 25° C | 47% | 1002 hPa | - | - | 0 W/m² | - |
| 1777454517 | 25° C | 46% | 1002 hPa | - | - | 0 W/m² | - |
| 1777452695 | 25.56° C | 43% | 1002 hPa | - | - | 0 W/m² | - |
| 1777450873 | 25.56° C | 44% | 1002 hPa | - | - | 0 W/m² | - |
| 1777449051 | 26.11° C | 44% | 1003 hPa | - | - | 0 W/m² | - |
| 1777447229 | 26.67° C | 45% | 1003 hPa | - | - | 0 W/m² | - |
| 1777445407 | 26.67° C | 48% | 1003 hPa | - | - | 0 W/m² | - |
| 1777443585 | 26.67° C | 48% | 1004 hPa | - | - | 0 W/m² | - |
| 1777441763 | 25° C | 51% | 1005 hPa | - | - | 0 W/m² | - |
| 1777439940 | 25.56° C | 47% | 1005 hPa | - | - | 0 W/m² | - |
| 1777438118 | 25.56° C | 46% | 1005 hPa | - | - | 0 W/m² | - |
| 1777436296 | 25° C | 48% | 1005 hPa | - | - | 0 W/m² | - |
| 1777434474 | 24.44° C | 47% | 1006 hPa | - | - | 0 W/m² | - |
| 1777432652 | 25° C | 47% | 1006 hPa | - | - | 0 W/m² | - |
| 1777430830 | 25.56° C | 52% | 1006 hPa | - | - | 0 W/m² | - |
| 1777429007 | 25.56° C | 52% | 1006 hPa | - | - | 0 W/m² | - |
| 1777427185 | 25° C | 48% | 1006 hPa | - | - | 0 W/m² | - |
| 1777425362 | 25° C | 55% | 1006 hPa | - | - | 0 W/m² | - |
| 1777423541 | 24.44° C | 52% | 1005 hPa | - | - | 0 W/m² | - |
| 1777421718 | 25° C | 69% | 1005 hPa | - | - | 0 W/m² | - |
| 1777419896 | 23.89° C | 71% | 1005 hPa | - | - | 0 W/m² | - |
* Rain since midnight (hover to see other rain measurements)
** Current wind speed in m/s (hover to see current wind gust speed)